CAPE
0 0 0 0 0 0 0 0 0 0 0 0 0 0 0 0 0 0 0 0 0 0 0 0 0 0 0 0 0 0 0 0 0 1 3 3 12 5 1 0 0 0 0 0
0 0 0 0 0 0 0 0 0 0 0 0 0 0 0 0 0 0 0 0 0 0 0 0 0 0 0 0 0 0 0 0 0 0 1 12 15 19 7 3 0 0 0 0
0 0 0 0 0 0 0 0 0 0 0 0 0 0 0 0 0 0 0 0 0 0 0 0 0 0 0 0 0 0 0 0 0 0 0 0 0 0 6 1 1 1 1 1
0 0 0 0 0 0 0 0 0 0 0 0 0 0 0 0 0 0 0 0 0 0 0 0 0 0 0 0 0 0 0 0 0 0 0 0 0 10 16 14 4 1 0 0
0 0 0 0 0 0 0 0 0 0 0 0 0 0 0 0 0 0 0 0 0 0 0 0 0 0 0 0 0 0 0 0 0 0 0 0 0 0 0 0 0 1 0 1
0 0 0 0 0 0 0 0 0 0 0 0 0 0 0 0 0 0 0 0 0 0 0 0 0 0 0 0 0 0 0 0 0 0 0 0 0 0 0 0 0 0 1 0
0 0 0 0 0 0 0 0 0 0 0 0 0 0 0 0 0 0 0 0 0 0 0 0 0 0 0 0 0 0 0 0 0 0 0 0 0 0 1 0 0 0 0 0
0 0 0 0 0 0 0 0 0 0 0 0 0 0 0 0 0 0 0 0 0 0 0 0 0 0 0 0 0 0 0 0 0 0 0 0 0 0 0 0 0 0 0 0
0 0 0 0 0 0 0 0 0 0 0 0 0 0 0 0 0 0 0 0 0 0 0 0 0 0 0 0 0 0 0 0 0 0 0 0 0 0 0 0 0 0 0 0
0 0 0 0 0 0 0 0 0 0 0 0 0 0 0 0 0 0 0 0 0 0 0 0 0 0 0 0 0 0 0 0 0 0 0 0 0 0 0 0 0 0 0 0
0 0 0 0 0 0 0 0 0 0 0 0 0 0 0 0 0 0 0 0 0 0 0 0 0 0 0 0 0 0 0 0 0 0 0 0 0 0 0 0 0 0 0 0
0 0 0 0 0 0 0 0 0 0 0 0 0 0 0 0 0 0 0 0 0 0 0 0 0 0 0 0 0 0 0 0 0 0 0 0 0 0 0 0 0 0 0 0
0 0 0 0 0 0 0 0 0 0 0 0 0 0 0 0 0 0 0 0 0 0 0 0 0 0 0 0 0 0 0 0 0 0 0 0 0 0 0 0 0 0 0 0
0 0 0 0 0 0 0 0 0 0 0 0 0 0 0 0 0 0 0 0 0 0 0 0 0 0 0 0 0 0 0 0 0 0 0 0 0 0 0 0 0 0 0 0
0 0 0 0 0 0 0 0 0 0 0 0 0 0 0 0 0 0 0 0 0 0 0 0 0 0 0 0 0 0 0 0 0 0 0 0 0 0 0 0 0 0 0 0
0 0 0 0 0 0 0 0 0 0 0 0 0 0 0 0 0 0 0 0 0 0 0 0 0 0 0 0 0 0 0 0 0 0 0 0 0 0 0 0 0 0 0 0
0 0 0 0 0 0 0 0 0 0 0 0 0 0 0 0 0 0 0 0 0 0 0 0 0 0 0 0 0 0 0 0 0 0 0 0 0 0 0 0 0 0 0 0
0 0 0 0 1 0 0 0 0 0 0 0 0 0 0 0 0 0 0 0 0 0 0 0 0 0 0 0 0 0 0 0 0 0 0 0 0 0 0 0 0 0 0 0
0 0 0 0 0 0 0 0 0 0 0 0 0 0 0 0 0 0 0 0 0 0 0 0 0 0 0 0 0 0 0 0 0 0 0 0 0 0 0 0 0 0 0 0
0 0 0 0 0 0 0 0 0 0 0 0 0 0 0 0 0 0 0 0 0 0 0 0 0 0 0 0 0 0 0 0 0 0 0 0 0 0 0 0 0 0 0 0
0 0 0 0 0 0 0 0 0 0 0 0 0 0 0 0 0 0 0 0 0 0 0 0 0 0 0 0 0 0 0 0 0 0 0 0 0 0 0 0 0 0 0 0
0 0 0 0 0 0 0 0 0 0 0 0 0 0 0 0 0 0 0 0 0 0 0 0 0 0 0 0 0 0 0 0 0 0 0 0 0 0 0 0 0 0 0 0
0 0 0 0 0 0 0 0 0 0 0 0 0 0 0 0 0 0 0 0 0 0 0 0 0 0 0 0 0 0 0 0 0 0 0 0 0 0 0 0 0 0 0 0
0 0 0 0 0 0 0 0 0 0 0 0 0 0 0 0 0 0 0 0 0 0 0 0 0 0 0 0 0 0 0 0 0 0 0 0 0 0 0 0 1 1 2 0
0 0 0 0 0 0 0 0 0 0 0 0 0 0 0 0 0 0 0 0 0 0 0 0 0 0 0 0 0 0 0 0 0 0 0 0 0 0 0 0 0 2 0 1
0 0 0 0 0 0 0 0 0 0 0 0 0 0 0 0 0 0 0 0 0 0 0 0 0 0 0 0 0 0 0 0 0 0 0 0 0 0 0 0 0 0 0 0
CIN
0 0 0 0 0 0 0 0 0 0 0 0 0 0 0 0 0 0 0 0 0 0 0 0 0 0 0 0 0 0 0 0 0 0 -164 -296 -490 -468 0 0 0 0 0 0
0 0 0 0 0 0 0 0 0 0 0 0 0 0 0 0 0 0 0 0 0 0 0 0 0 0 0 0 0 0 0 0 0 0 0 -497 -480 -476 -495 -498 -4 0 0 0
0 0 0 0 0 0 0 0 0 0 0 0 0 0 0 0 0 0 0 0 0 0 0 0 0 0 0 0 0 0 0 0 0 0 0 0 0 0 -446 -1 0 0 0 0
0 0 0 0 0 0 0 0 0 0 0 0 0 0 0 0 0 0 0 0 0 0 0 0 0 0 0 0 0 0 0 0 0 0 0 0 0 -488 -441 -398 -394 -4 -7 -1
0 0 0 0 0 0 0 0 0 0 0 0 0 0 0 0 0 0 0 0 0 0 0 0 0 0 0 0 0 0 0 0 0 0 0 0 0 0 0 0 0 -2 0 -7
0 0 0 0 0 0 0 0 0 0 0 0 0 0 0 0 0 0 0 0 0 0 0 0 0 0 0 0 0 0 0 0 0 0 0 0 0 0 0 0 0 0 -5 -2
0 0 0 0 0 0 0 0 0 0 0 0 0 0 0 0 0 0 0 0 0 0 0 0 0 0 0 0 0 0 0 0 0 0 0 0 0 0 0 0 0 0 0 0
0 0 0 0 0 0 0 0 0 0 0 0 0 0 0 0 0 0 0 0 0 0 0 0 0 0 0 0 0 0 0 0 0 0 0 0 0 0 0 0 0 0 0 0
0 0 0 0 0 0 0 0 0 0 0 0 0 0 0 0 0 0 0 0 0 0 0 0 0 0 0 0 0 0 0 0 0 0 0 0 0 0 0 0 0 0 0 0
0 0 0 0 0 0 0 0 0 0 0 0 0 0 0 0 0 0 0 0 0 0 0 0 0 0 0 0 0 0 0 0 0 0 0 0 0 0 0 0 0 0 0 0
0 0 0 0 0 0 0 0 0 0 0 0 0 0 0 0 0 0 0 0 0 0 0 0 0 0 0 0 0 0 0 0 0 0 0 0 0 0 0 0 0 0 0 0
0 0 0 0 0 0 0 0 0 0 0 0 0 0 0 0 0 0 0 0 0 0 0 0 0 0 0 0 0 0 0 0 0 0 0 0 0 0 0 0 0 0 0 0
0 0 0 0 0 0 0 0 0 0 0 0 0 0 0 0 0 0 0 0 0 0 0 0 0 0 0 0 0 0 0 0 0 0 0 0 0 0 0 0 0 0 0 0
0 0 0 0 0 0 0 0 0 0 0 0 0 0 0 0 0 0 0 0 0 0 0 0 0 0 0 0 0 0 0 0 0 0 0 0 0 0 0 0 0 0 0 0
0 0 0 0 0 0 0 0 0 0 0 0 0 0 0 0 0 0 0 0 0 0 0 0 0 0 0 0 0 0 0 0 0 0 0 0 0 0 0 0 0 0 0 0
0 0 0 0 0 0 0 0 0 0 0 0 0 0 0 0 0 0 0 0 0 0 0 0 0 0 0 0 0 0 0 0 0 0 0 0 0 0 0 0 0 0 0 0
0 0 0 0 0 0 0 0 0 0 0 0 0 0 0 0 0 0 0 0 0 0 0 0 0 0 0 0 0 0 0 0 0 0 0 0 0 0 0 0 0 0 0 0
0 0 0 0 0 0 0 0 0 0 0 0 0 0 0 0 0 0 0 0 0 0 0 0 0 0 0 0 0 0 0 0 0 0 0 0 0 0 0 0 0 0 0 0
0 0 0 0 0 0 0 0 0 0 0 0 0 0 0 0 0 0 0 0 0 0 0 0 0 0 0 0 0 0 0 0 0 0 0 0 0 0 0 0 0 0 0 0
0 0 0 0 0 0 0 0 0 0 0 0 0 0 0 0 0 0 0 0 0 0 0 0 0 0 0 0 0 0 0 0 0 0 0 0 0 0 0 0 0 0 0 0
0 0 0 0 0 0 0 0 0 0 0 0 0 0 0 0 0 0 0 0 0 0 0 0 0 0 0 0 0 0 0 0 0 0 0 0 0 0 0 0 0 0 0 0
0 0 0 0 0 0 0 0 0 0 0 0 0 0 0 0 0 0 0 0 0 0 0 0 0 0 0 0 0 0 0 0 0 0 0 0 0 0 0 0 0 0 0 0
0 0 0 0 0 0 0 0 0 0 0 0 0 0 0 0 0 0 0 0 0 0 0 0 0 0 0 0 0 0 0 0 0 0 0 0 0 0 0 0 0 0 0 0
0 0 0 0 0 0 0 0 0 0 0 0 0 0 0 0 0 0 0 0 0 0 0 0 0 0 0 0 0 0 0 0 0 0 0 0 0 0 0 0 0 0 0 0
0 0 0 0 0 0 0 0 0 0 0 0 0 0 0 0 0 0 0 0 0 0 0 0 0 0 0 0 0 0 0 0 0 0 0 0 0 0 0 0 0 0 0 0
0 0 0 0 0 0 0 0 0 0 0 0 0 0 0 0 0 0 0 0 0 0 0 0 0 0 0 0 0 0 0 0 0 0 0 0 0 0 0 0 0 0 0 0
Wind_Speed
24 27 31 27 23 20 20 21 22 19 19 21 21 25 29 26 24 28 27 26 29 28 24 24 24 22 15 8 5 7 6 6 6 7 7 8 8 7 7 7 7 7 7 7
27 35 28 23 22 21 20 20 21 18 18 20 22 25 26 27 23 24 25 25 25 25 22 21 21 21 18 16 11 9 7 9 8 10 10 10 10 10 11 12 11 10 10 10
31 27 22 24 24 24 24 23 22 21 18 19 24 26 23 19 18 19 19 18 20 19 17 16 16 17 17 17 19 16 15 13 13 13 15 16 19 20 16 15 15 14 13 13
28 24 25 25 27 24 27 22 18 19 22 27 21 27 20 18 17 17 17 17 17 16 14 14 15 16 17 17 17 16 17 17 16 14 15 16 17 18 18 19 20 19 17 17
29 26 25 29 27 23 26 18 19 20 23 24 24 25 23 17 17 16 14 14 13 12 12 13 14 15 17 17 18 17 16 16 17 16 15 17 19 22 23 23 22 22 21 20
25 21 23 24 21 22 14 15 17 20 23 31 25 24 25 21 16 13 10 9 10 11 11 12 14 15 17 18 19 19 18 19 18 17 17 18 20 23 24 24 25 25 24 24
28 25 23 19 20 19 21 20 27 30 30 33 23 23 24 16 13 9 5 7 9 10 12 13 15 16 18 19 19 20 20 21 21 21 20 21 22 23 24 26 27 27 28 27
33 34 27 24 25 27 23 25 27 32 32 31 23 27 23 19 13 10 7 6 8 10 12 14 15 17 18 20 21 21 21 22 22 23 23 23 24 24 25 26 27 28 29 29
33 33 25 25 24 21 27 31 23 25 26 28 26 26 23 16 11 7 7 8 9 10 11 13 16 18 19 20 21 22 22 23 24 25 25 26 26 26 27 27 27 28 28 29
28 31 27 26 23 25 27 21 28 28 34 37 32 31 27 18 13 13 11 9 9 11 12 15 17 19 20 21 21 22 23 24 26 27 27 28 28 29 29 30 31 32 32 32
28 31 30 27 33 32 28 31 28 26 29 34 35 34 26 18 14 13 11 10 10 11 13 14 16 18 20 21 22 24 26 27 28 29 29 30 31 31 32 33 34 35 35 34
29 30 36 34 28 30 31 33 31 35 35 33 32 34 22 14 12 12 12 12 11 12 13 14 16 18 20 22 24 26 27 29 30 31 32 33 34 34 35 36 36 36 37 37
30 35 39 38 36 33 37 35 33 31 30 36 38 37 19 17 16 15 13 13 14 14 15 16 17 20 21 23 25 27 29 30 32 33 34 35 37 38 40 40 41 41 41 41
26 35 43 48 42 32 40 36 35 36 41 40 41 34 27 23 20 18 15 15 15 16 17 18 20 22 24 25 27 28 30 31 33 34 36 38 40 41 42 42 42 43 43 43
27 38 38 38 36 35 38 39 37 41 42 41 45 37 29 25 22 19 17 16 16 17 18 20 22 23 24 27 28 29 31 33 35 37 38 40 41 42 42 42 43 43 44 44
27 34 32 39 36 36 41 38 37 39 40 41 38 37 29 23 19 19 18 17 18 19 20 21 23 25 26 28 31 32 34 35 37 39 41 41 42 43 43 44 45 45 45 46
32 33 35 43 34 36 47 44 39 38 37 36 42 37 24 24 25 24 20 19 20 20 21 23 25 26 27 29 31 34 36 37 40 42 43 45 46 48 48 48 48 49 49 48
31 31 32 38 32 50 42 34 36 39 36 33 32 27 23 21 20 20 18 19 20 20 22 23 25 27 29 31 33 36 39 42 45 46 48 48 50 52 52 52 52 51 50 50
26 28 32 36 39 37 35 31 29 32 37 29 28 23 20 17 19 24 20 18 18 19 21 22 24 27 31 34 37 40 43 45 47 49 50 51 52 54 54 54 53 52 52 52
24 26 29 29 38 42 33 24 20 19 34 24 23 22 21 21 28 27 17 16 17 18 21 24 26 30 34 37 39 43 45 47 49 50 52 51 51 51 53 53 53 51 51 52
28 27 33 32 34 35 28 21 17 32 34 20 19 19 18 22 23 18 13 16 18 21 24 27 30 34 37 38 41 46 47 49 48 49 50 50 50 50 51 52 50 51 52 51
33 33 34 33 38 46 20 19 28 26 19 16 14 14 14 16 16 13 16 19 22 26 29 32 35 38 39 41 45 48 49 48 49 50 51 51 50 50 49 51 52 50 51 53
38 33 35 33 37 26 21 25 20 16 15 15 15 15 14 15 18 19 24 26 28 30 32 34 38 41 42 43 44 49 49 48 50 52 53 53 53 51 49 51 52 51 50 50
33 29 31 30 30 26 22 22 19 18 19 17 17 16 18 20 21 24 26 27 30 32 35 37 41 43 45 43 44 45 48 48 51 54 54 53 53 53 51 48 47 48 47 47
32 28 31 32 28 24 25 26 23 21 20 19 19 22 24 25 26 26 27 29 30 32 34 38 41 43 45 45 46 46 48 49 53 53 53 53 52 51 52 49 47 45 43 40
31 33 35 39 29 31 30 28 24 23 23 21 22 25 25 26 27 26 28 29 30 33 35 38 40 43 45 46 48 47 47 49 51 53 52 51 51 50 49 49 49 41 40 38
Wind_Direction
231 232 230 234 241 250 249 251 257 267 274 274 277 277 273 281 290 285 288 290 283 290 299 297 293 295 299 292 222 210 222 237 253 257 258 256 248 261 274 285 277 274 280 269
232 233 237 239 242 247 252 254 259 271 280 280 283 282 284 287 295 298 295 296 294 297 302 306 306 305 298 295 293 286 264 275 263 276 281 284 285 284 287 292 289 284 278 277
233 242 238 240 243 245 254 256 261 268 276 287 287 286 292 301 308 312 312 309 306 308 314 321 327 327 321 307 298 298 296 290 284 283 291 295 298 300 299 296 296 292 289 286
241 244 236 240 244 249 252 260 264 269 272 272 291 279 292 302 309 315 317 317 316 318 324 329 333 338 338 335 329 318 308 303 298 292 288 287 291 292 293 295 300 299 294 293
238 239 239 241 248 250 256 261 265 271 273 276 280 282 290 298 302 312 324 329 335 342 349 354 354 351 350 351 349 347 343 331 318 310 302 300 298 299 300 300 298 299 299 296
244 250 248 250 252 252 250 259 270 275 275 272 276 277 282 288 296 308 327 345 355 3 7 5 2 1 358 359 2 1 359 351 341 332 323 315 311 310 308 306 305 304 304 303
243 246 252 253 246 249 255 251 262 266 267 270 280 279 285 289 296 305 329 346 350 357 2 359 357 356 357 356 355 360 2 357 352 349 342 334 326 320 316 314 312 310 310 308
238 244 244 251 251 250 247 253 262 265 267 272 278 276 281 281 289 294 307 335 348 354 358 356 353 356 355 355 354 355 354 352 351 348 344 341 338 333 328 324 320 317 315 314
242 247 251 252 255 251 253 255 266 270 276 275 275 279 282 280 273 278 291 303 318 330 343 349 350 350 349 349 350 351 351 350 349 349 346 344 341 339 336 333 330 327 324 321
250 251 255 254 257 259 259 253 260 265 267 269 274 274 276 260 252 266 277 291 309 320 332 338 342 346 350 351 350 350 350 347 344 344 345 342 341 339 336 333 329 326 324 322
249 254 256 252 251 250 254 256 264 267 269 271 273 275 275 257 252 258 273 288 302 313 323 335 338 343 347 348 347 345 345 343 342 342 340 339 337 337 337 334 331 328 326 323
251 257 256 255 265 262 258 258 258 261 266 268 275 277 283 251 258 265 276 289 302 314 323 334 337 339 340 339 339 339 338 338 337 336 335 335 335 335 333 332 330 330 326 324
245 252 252 257 261 261 258 258 259 265 271 267 268 276 272 270 269 274 277 288 298 307 314 325 330 332 333 334 336 335 334 333 332 332 331 331 331 330 329 327 326 325 324 322
248 252 250 252 259 258 257 258 257 260 263 267 268 272 263 265 266 272 277 285 294 302 309 315 320 325 329 332 332 332 332 332 330 329 329 327 326 327 327 326 325 325 324 323
251 253 255 259 262 262 262 257 256 257 261 265 270 268 258 253 259 264 273 282 288 296 304 310 316 321 326 328 329 329 329 329 328 328 327 327 327 328 329 328 328 326 325 324
256 257 259 258 264 265 263 262 259 259 263 266 271 272 275 257 261 267 271 275 285 293 301 309 314 318 322 324 324 326 326 327 327 327 327 327 328 328 328 327 327 326 325 324
254 254 258 260 263 267 264 260 260 263 265 263 266 273 273 262 255 263 268 276 284 292 299 306 312 316 322 324 325 325 325 325 325 325 325 325 325 323 323 323 323 322 322 322
254 254 261 262 264 262 270 274 265 263 265 265 271 270 265 264 266 270 272 277 285 293 301 308 314 317 322 324 325 324 324 323 322 321 321 322 321 320 321 320 320 320 320 320
256 257 260 260 261 274 274 275 271 263 267 263 266 265 267 269 278 279 278 281 287 297 304 309 315 319 321 322 322 322 321 320 320 319 319 320 320 319 319 318 319 319 319 318
256 257 260 264 262 263 275 274 280 279 273 267 260 260 264 270 271 279 271 281 291 299 306 310 315 317 319 320 321 320 319 319 318 318 319 319 320 319 318 318 318 318 318 316
253 258 257 259 267 272 274 274 276 269 279 277 267 263 263 269 283 287 275 288 297 302 307 311 314 315 318 320 320 317 317 317 319 319 320 320 320 319 319 318 318 317 317 316
253 255 260 265 267 268 270 268 268 283 287 279 275 272 269 283 290 285 289 295 301 304 307 310 311 314 317 320 318 317 317 319 320 320 319 319 320 320 319 317 317 317 316 315
257 260 260 264 269 280 263 277 275 280 275 276 278 279 280 283 288 288 293 298 302 305 308 311 312 314 316 319 319 317 318 320 320 319 318 318 318 317 318 316 315 315 316 315
264 265 264 267 270 274 263 275 272 275 279 278 279 279 282 286 290 293 296 300 303 306 309 312 313 315 317 320 321 320 320 320 319 318 318 319 318 317 317 317 316 315 315 317
263 258 261 265 273 273 267 270 269 273 275 277 279 282 285 289 293 297 300 304 307 309 312 315 316 317 318 320 320 321 321 321 319 319 319 318 318 318 318 317 315 315 315 315
259 262 260 266 267 270 268 264 267 269 272 275 281 286 292 294 296 302 304 307 310 312 315 316 318 318 319 320 321 322 323 322 320 319 320 320 319 319 318 318 316 317 315 316